Capitol Logistics 211


MMMX
Benito Juárez International Airport
Mexico City, MX
KMIA
Miami International Airport
Miami, US

Route Details

Aircraft Information
Primary: Boeing 767-300BDSF
Backup: Not Available
Route Data
Distance: 1145nm
Sched. Duration: 3h 00m
Avg. Duration: 2h 56m (-44m)
Times Flown: 13
Recm'd Route: CCUDA M580 NATLE CYY SSCOT5
Planned Altitude: 35,000ft
Origin Wx: MMMX 311310Z 04005KT 8SM SCT080 14/08 A3034 NOSIG RMK 8/030 HZY SC
Dest. Wx: KMIA 311253Z 12007KT 100V170 10SM SCT022 BKN035 BKN250 28/23 A3003 RMK AO2 SLP170 T02830233
Notes:

Financial History
Total Freight: 1,149,374lbs
Average Load: 88,413lbs/flt
Fuel Used: 381,200lbs
Avg. Fuel Used: 29,323lbs/flt
Fuel Expense: $304,960
Avg. Fuel Expense: $23,458
Avg. Fuel Cost: $0.80/lbs
Total Gross Income: $2,884,376
Pilot Pay: $2,497
Total Expenses: $312,189
Total Revenue: $2,258,607
Average Revenue: $221,875.10